Regional Weather Roundup
Issued by NWS

Home | Current Version | Previous Version | Text Only | Print | Product List | Glossary On
Versions: 1 2 3 4 5 6 7 8 9 10 11 12 13 14 15 16 17 18 19 20 21 22 23 24 25 26 27 28 29 30 31 32 33 34 35 36 37 38 39 40 41 42 43 44 45 46 47 48 49
000
ASUS46 KPQR 210210
RWROR

OREGON REGIONAL WEATHER ROUNDUP
NATIONAL WEATHER SERVICE PORTLAND OR
700 PM PDT SAT SEP 20 2014

NOTE: "FAIR" INDICATES FEW OR NO CLOUDS BELOW 12,000 FEET WITH
NO SIGNIFICANT WEATHER AND/OR OBSTRUCTIONS TO VISIBILITY.

ORZ001>013-210300-
NORTHWEST OREGON


CITY           SKY/WX    TMP DP  RH WIND       PRES   REMARKS
ASTORIA        CLEAR     81  58  45 E9        29.78F
NEWPORT        CLEAR     61  55  82 S15G22    29.88R
PORTLAND       MOCLDY    87  49  26 E16       29.79F
VANCOUVER WA   CLEAR     88  46  23 E10       29.79F
SCAPPOOSE      CLEAR     86  54  33 N7        29.80S
HILLSBORO      PTCLDY    86  49  27 E12       29.80S
AURORA         CLEAR     86  52  30 N8        29.78F
MCMINNVILLE    CLEAR     87  53  31 N8        29.79S
SALEM          CLEAR     88  53  30 NW7       29.77S
CORVALLIS      CLEAR     88  57  35 CALM      29.81S
EUGENE         CLEAR     83  56  39 NW5       29.80F
$$

ORZ021-028-210300-
SOUTHWEST OREGON


CITY           SKY/WX    TMP DP  RH WIND       PRES   REMARKS
NORTH BEND     CLOUDY    61  61 100 W7        29.90R
BROOKINGS      CLOUDY    61  59  94 S7        29.92S FOG
ROSEBURG       CLEAR     92  51  24 N3        29.78R
SEXTON SUMMIT  CLEAR     78  42  27 NW3       30.00S
MEDFORD        CLEAR     94  45  18 W5        29.79S HX  90
$$

ORZ009-041-210300-
COLUMBIA GORGE


CITY           SKY/WX    TMP DP  RH WIND       PRES   REMARKS
TROUTDALE      CLEAR     83  51  33 E12       29.79F
THE DALLES     CLEAR     84  46  26 SE8       29.89F
$$

ORZ029>031-042>050-061>064-210300-
EASTERN OREGON


CITY           SKY/WX    TMP DP  RH WIND       PRES   REMARKS
REDMOND        CLEAR     77  44  30 NW12      29.99S
BEND           CLEAR     77  45  31 N12       30.03F
KLAMATH FALLS  CLEAR     79  36  21 N10       29.98F
LAKEVIEW       PTCLDY    79  36  21 NW7       30.05F
HERMISTON      CLEAR     83  50  31 N3        29.93S
PENDLETON      CLEAR     78  45  30 N6        29.97S
JOHN DAY       CLEAR     80  41  24 NW7       30.03S
MEACHAM        CLEAR     67  45  45 CALM      30.10S
LA GRANDE      CLEAR     72  37  28 SW5       30.01F
BAKER CITY     CLEAR     67  44  43 W8        30.05S
BURNS          CLEAR     73  41  31 NE9       30.06S
ROME             N/A     81  39  22 N12       30.03R
ONTARIO        CLEAR     78  47  33 CALM      29.98F
$$


USA.gov is the U.S. government's official web portal to all federal, state and local government web resources and services.